Total_Precipitation_Accumulation
0.11 0.32 0.75 1.03 1.45 1.83 1.72 1.25 1.00 0.71 0.58 0.59 0.49 0.48 0.59 0.89 1.36 2.48 2.83 2.28 1.68 1.55 1.73 1.90 1.88 1.83 1.72 1.69 1.90 1.97 1.95 1.98 2.02 2.17 2.28 2.38 2.41 2.31 2.20 2.21 2.28 2.44 2.48 2.53 2.75 2.88 2.95 2.88 2.88
0.18 0.45 0.83 1.19 1.62 1.94 1.66 1.06 0.77 0.64 0.53 0.53 0.47 0.48 0.71 0.84 0.94 1.65 2.12 1.88 1.34 1.25 1.43 1.60 1.71 1.63 1.50 1.52 1.58 1.71 1.80 1.78 1.91 2.19 2.33 2.41 2.35 2.25 2.18 2.10 2.19 2.39 2.57 2.69 2.74 2.74 2.67 2.47 2.42
0.28 0.50 0.90 1.23 1.33 1.44 1.29 0.90 0.67 0.54 0.55 0.68 0.66 0.57 0.90 1.07 1.04 1.57 1.89 1.39 1.15 1.16 1.37 1.55 1.50 1.36 1.24 1.16 1.25 1.47 1.64 1.76 1.90 2.05 2.13 2.19 2.16 2.20 2.10 2.04 2.18 2.46 2.89 3.01 2.85 2.67 2.41 2.19 2.05
0.32 0.56 0.77 0.92 0.83 0.74 0.75 0.67 0.56 0.50 0.52 0.62 0.71 0.79 1.09 1.06 1.01 1.31 1.46 1.17 1.08 1.09 1.10 1.16 1.25 1.16 1.10 1.06 1.11 1.27 1.43 1.63 1.81 1.90 1.97 2.12 2.21 2.23 2.16 2.15 2.34 2.68 3.04 3.04 2.86 2.60 2.24 2.03 1.87
0.36 0.57 0.74 0.75 0.72 0.65 0.57 0.52 0.47 0.54 0.57 0.63 0.69 1.00 1.32 1.23 1.02 1.06 1.13 0.99 0.85 0.83 0.81 0.86 0.99 0.99 1.02 1.00 1.07 1.23 1.46 1.61 1.62 1.78 2.12 2.29 2.34 2.45 2.41 2.40 2.61 2.76 2.87 2.82 2.73 2.41 2.16 1.98 1.91
0.41 0.48 0.54 0.65 0.66 0.60 0.51 0.41 0.36 0.47 0.59 0.73 0.80 1.04 1.55 1.47 1.15 1.03 0.85 0.79 0.67 0.62 0.74 0.86 0.96 0.94 0.93 0.95 1.08 1.29 1.49 1.57 1.62 1.81 2.05 2.23 2.35 2.43 2.49 2.55 2.72 2.74 2.73 2.59 2.40 2.11 2.03 1.98 1.96
0.35 0.33 0.31 0.42 0.50 0.49 0.45 0.39 0.35 0.40 0.56 0.74 0.78 1.18 1.66 1.74 1.32 1.00 0.86 0.84 0.86 0.78 0.90 1.04 1.10 1.10 1.13 1.22 1.30 1.43 1.58 1.69 1.80 1.88 1.93 2.08 2.22 2.27 2.38 2.53 2.67 2.70 2.57 2.30 2.23 2.12 2.06 1.98 1.91
0.23 0.24 0.23 0.27 0.33 0.45 0.41 0.32 0.33 0.43 0.48 0.55 0.71 1.11 1.53 1.53 1.31 1.18 1.30 1.28 1.36 1.18 1.09 1.14 1.28 1.40 1.33 1.34 1.51 1.62 1.69 1.73 1.78 1.79 1.88 2.02 2.22 2.33 2.48 2.56 2.82 2.92 2.70 2.35 2.42 2.30 2.06 1.95 1.93
0.16 0.34 0.31 0.22 0.24 0.30 0.27 0.31 0.32 0.30 0.36 0.49 0.69 0.92 1.18 1.15 1.18 1.47 1.81 1.70 1.71 1.57 1.32 1.20 1.12 1.27 1.42 1.44 1.48 1.68 1.76 1.83 1.91 2.04 2.15 2.35 2.53 2.53 2.87 2.94 3.27 3.30 2.97 2.73 2.73 2.50 2.25 2.04 2.03
0.11 0.27 0.21 0.12 0.11 0.14 0.19 0.26 0.29 0.33 0.56 0.86 1.04 1.15 1.31 1.56 1.57 1.71 1.80 1.72 1.71 1.70 1.53 1.41 1.32 1.27 1.39 1.42 1.66 2.02 1.89 2.01 2.21 2.52 2.66 2.89 3.02 3.04 2.75 3.31 3.80 3.77 3.56 3.34 3.28 3.01 2.55 2.15 2.09
0.07 0.11 0.11 0.10 0.08 0.10 0.15 0.18 0.22 0.36 0.76 1.17 1.44 1.55 1.61 1.87 2.06 2.06 2.13 2.14 2.05 1.99 1.76 1.56 1.53 1.59 1.55 1.69 1.71 1.98 2.23 2.45 2.54 2.61 2.74 2.99 2.97 2.87 2.92 3.42 3.78 3.78 3.64 3.66 3.78 3.50 2.91 2.77 2.90
0.03 0.03 0.05 0.07 0.06 0.07 0.11 0.15 0.26 0.51 0.97 1.15 1.42 1.61 1.65 2.04 2.16 2.16 2.60 2.70 2.30 2.04 2.03 1.95 1.89 1.90 1.92 1.76 1.94 1.99 2.10 2.31 2.51 2.71 2.72 2.88 3.27 3.31 3.35 3.60 3.57 3.65 3.67 4.08 3.91 3.92 3.59 3.23 2.97
0.02 0.03 0.04 0.05 0.05 0.05 0.08 0.17 0.29 0.52 0.76 0.90 1.13 1.31 1.36 1.86 2.20 2.45 2.95 2.90 2.60 2.41 2.36 2.24 2.19 2.26 2.24 2.24 2.30 2.10 2.22 2.33 2.46 2.69 2.86 2.90 3.20 3.41 3.55 3.69 3.66 3.25 3.22 3.58 3.90 3.76 3.77 3.71 3.46
0.03 0.05 0.06 0.06 0.07 0.07 0.08 0.18 0.35 0.60 0.71 0.95 0.98 1.17 1.42 1.82 2.11 2.52 2.84 3.07 2.92 2.70 2.57 2.42 2.40 2.50 2.57 2.58 2.70 2.65 2.45 2.58 2.53 2.81 2.88 2.95 3.09 3.35 3.63 3.77 3.80 3.38 3.19 3.43 3.69 3.61 3.86 3.74 3.68
0.04 0.09 0.13 0.11 0.11 0.11 0.12 0.34 0.63 0.74 0.82 1.01 1.17 1.30 1.54 1.91 2.39 2.65 2.89 3.16 3.17 3.11 2.96 2.78 2.71 2.86 3.08 3.23 3.24 3.12 2.92 2.69 2.70 2.85 2.89 3.00 3.02 3.34 3.41 3.49 3.60 3.55 3.31 3.46 3.61 3.64 3.78 3.59 3.41
0.07 0.11 0.19 0.19 0.15 0.14 0.21 0.68 0.84 0.74 0.93 1.17 1.26 1.50 1.80 2.21 2.62 3.08 3.22 3.12 3.12 3.26 3.23 2.99 2.80 3.24 3.61 3.72 3.75 3.54 3.26 2.89 2.84 2.90 2.98 3.09 3.18 3.36 3.59 3.36 3.33 3.64 3.52 3.66 4.03 3.95 4.02 4.12 3.93
0.12 0.19 0.18 0.22 0.18 0.17 0.30 0.83 0.81 0.65 0.84 1.05 1.26 1.49 1.94 2.46 2.79 2.91 2.95 3.15 3.29 3.36 3.34 3.31 3.43 3.58 3.74 3.84 3.96 3.73 3.50 3.28 3.03 2.94 2.94 3.06 3.20 3.35 3.74 3.69 3.76 3.77 3.73 3.80 3.48 4.01 4.32 4.40 4.23
0.15 0.15 0.19 0.21 0.19 0.22 0.34 0.61 0.70 0.73 0.99 1.11 1.39 1.59 1.77 2.16 2.60 2.68 2.79 3.24 3.32 3.49 3.63 3.58 3.71 3.90 4.20 4.39 4.57 4.21 3.84 3.56 3.29 3.10 3.15 3.21 3.43 3.55 3.87 3.81 3.82 3.70 3.82 3.85 3.85 4.28 4.25 3.99 4.05
0.06 0.12 0.22 0.21 0.20 0.27 0.40 0.60 0.79 0.89 1.12 1.44 1.64 1.63 1.61 1.93 2.39 2.76 3.06 3.17 3.50 3.70 3.87 3.89 4.14 4.58 4.93 4.77 4.45 4.29 4.06 3.83 3.60 3.32 3.23 3.30 3.29 3.47 3.84 3.68 3.97 3.89 3.74 3.69 3.65 4.00 4.11 3.82 4.02
0.04 0.10 0.19 0.21 0.21 0.33 0.50 0.73 0.89 1.10 1.36 1.49 1.41 1.39 1.54 1.93 2.44 2.82 3.08 3.21 3.47 3.74 4.16 4.29 4.50 4.90 5.05 4.90 4.78 4.64 4.51 4.10 3.98 3.83 3.68 3.31 3.13 3.25 3.28 3.63 3.47 3.56 3.73 3.62 3.74 4.05 3.95 3.59 4.07
0.06 0.11 0.18 0.19 0.27 0.44 0.58 1.03 1.19 1.33 1.50 1.51 1.43 1.60 1.62 1.71 2.14 2.42 2.53 2.70 2.87 3.02 3.28 3.57 4.08 4.61 4.83 4.90 4.80 4.75 4.78 4.32 4.08 3.95 3.79 3.42 3.13 3.03 3.16 3.33 3.43 3.50 3.42 3.53 3.74 3.81 3.86 3.78 3.91
0.08 0.10 0.11 0.15 0.27 0.55 0.67 1.32 1.50 1.68 1.82 1.70 1.60 1.53 1.52 1.76 2.08 2.08 1.90 2.05 2.31 2.30 2.61 3.03 3.50 3.88 4.13 4.22 4.23 4.28 4.25 4.17 4.08 3.94 3.58 3.36 3.13 3.01 3.08 3.20 3.29 3.35 3.17 3.33 3.17 3.28 3.77 3.90 3.74
0.07 0.10 0.12 0.17 0.30 0.55 0.61 1.00 1.52 1.88 2.07 1.69 1.58 1.44 1.51 1.74 1.77 1.72 1.72 1.83 1.98 2.14 2.46 2.77 3.11 3.41 3.59 3.69 3.78 3.90 3.79 3.83 3.72 3.55 3.36 3.17 3.01 2.87 2.67 2.81 3.05 3.13 3.00 2.94 2.98 3.23 3.34 3.30 3.33
0.07 0.13 0.21 0.29 0.50 0.91 0.77 0.89 1.43 1.80 1.65 1.45 1.39 1.18 1.30 1.48 1.56 1.60 1.69 1.80 1.92 2.22 2.58 2.87 3.12 3.35 3.42 3.21 3.11 3.16 3.22 3.28 3.23 3.09 2.92 2.72 2.68 2.60 2.45 2.51 2.78 2.89 2.83 2.79 2.80 2.91 2.94 2.97 3.00
0.11 0.24 0.71 1.13 1.46 1.35 0.84 0.95 1.55 1.43 1.10 1.02 1.11 1.11 1.11 1.14 1.28 1.38 1.56 1.76 1.93 2.05 2.15 2.59 3.02 3.20 3.10 2.85 2.67 2.60 2.75 2.87 2.81 2.70 2.63 2.54 2.43 2.38 2.39 2.41 2.56 2.59 2.54 2.49 2.58 2.66 2.71 2.89 2.98
0.16 0.27 0.78 1.09 1.19 1.16 0.95 1.35 1.84 1.43 0.99 0.84 0.94 0.94 0.83 0.79 0.76 0.84 1.01 1.13 1.28 1.33 1.35 1.53 1.81 2.05 2.13 2.03 2.05 2.12 2.17 2.25 2.26 2.46 2.31 2.30 2.24 2.15 2.20 2.19 2.19 2.22 2.21 2.19 2.53 2.57 2.67 2.86 2.95
0.26 0.31 0.33 0.56 0.78 1.18 1.20 1.42 1.52 1.25 0.97 0.93 1.00 0.92 0.74 0.69 0.66 0.73 0.83 0.89 0.97 1.00 1.05 1.19 1.43 1.67 1.72 1.73 1.79 1.83 1.85 1.91 1.94 2.01 1.97 1.94 2.01 1.98 1.99 1.99 2.13 2.12 2.18 2.31 2.51 2.51 2.59 2.85 2.89
0.22 0.30 0.46 0.74 0.99 1.15 1.26 1.63 1.80 1.60 1.33 1.14 1.08 0.96 0.75 0.63 0.62 0.70 0.80 0.84 0.93 1.04 1.20 1.32 1.43 1.53 1.53 1.53 1.54 1.50 1.60 1.63 1.69 1.69 1.64 1.66 1.74 1.77 1.80 1.86 1.95 2.02 2.08 2.21 2.42 2.41 2.49 2.65 2.70
0.26 0.34 0.50 0.68 0.75 0.97 1.38 1.55 1.31 1.26 1.24 1.30 1.25 1.04 0.81 0.64 0.59 0.66 0.79 0.83 0.89 1.01 1.15 1.30 1.40 1.50 1.47 1.42 1.49 1.54 1.56 1.61 1.59 1.57 1.50 1.57 1.65 1.70 1.72 1.81 1.92 1.96 2.01 2.18 2.34 2.31 2.40 2.40 2.41
0.25 0.35 0.51 0.77 0.82 0.85 1.03 1.23 0.86 0.86 0.96 1.05 1.06 0.85 0.67 0.61 0.61 0.68 0.79 0.84 0.97 1.04 1.11 1.14 1.26 1.39 1.40 1.41 1.53 1.73 1.71 1.72 1.68 1.55 1.49 1.55 1.56 1.60 1.64 1.75 1.84 1.84 1.96 2.17 2.26 2.25 2.40 2.46 2.44